This demonstration page uses our WeatherBlox Daily Observations layout. Learn more.

Left ArrowRight Arrow

39.08367, -84.50855

Hourly Observations for March 29, 2019

Temp ( °F °C ) Dew Point ( °F °C ) Humidity (%) Winds ( mph kmh ) Pressure ( in mb ) Visibility ( mi km ) Precip ( " mm )
12:53 am 00:53 Cloudy 58 14.4 43 6.1 58 58 SW 7 11 30.10 1019 10 16 N/A
1:53 am 01:53 Cloudy 60 15.6 42 5.6 52 52 SSW 7 11 30.11 1020 10 16 N/A
2:53 am 02:53 Cloudy 58 14.4 43 6.1 58 58 SSW 6 9 30.10 1019 10 16 N/A
3:53 am 03:53 Cloudy 54 12.2 47 8.3 77 77 N N/A 30.09 1019 10 16 N/A
4:53 am 04:53 Mostly Cloudy 57 13.9 46 7.8 67 67 W 3 6 30.10 1019 10 16 N/A
5:53 am 05:53 Cloudy with Light Rain 54 12.2 49 9.4 83 83 W 7 11 30.12 1020 7 11 0.02 0.51
6:53 am 06:53 Cloudy with Light Rain 53 11.7 50 10 89 89 SSW 5 7 30.10 1019 10 16 0.06 1.52
7:53 am 07:53 Cloudy 52 11.1 50 10 93 93 S 5 7 30.11 1020 7 11 N/A
8:53 am 08:53 Cloudy 53 11.7 51 10.6 93 93 SSW 8 13 30.11 1020 10 16 N/A
9:30 am 09:30 Cloudy 54 12.2 51 10.6 90 90 SSW 6 9 30.11 1020 10 16 N/A
9:53 am 09:53 Cloudy 55 12.8 50 10 83 83 SSW 13 20 30.11 1020 10 16 N/A
10:53 am 10:53 Cloudy 56 13.3 51 10.6 84 84 SSW 13 20 30.11 1020 10 16 N/A
11:53 am 11:53 Cloudy 57 13.9 51 10.6 81 81 SSW 8 13 30.10 1019 10 16 N/A
12:53 pm 12:53 Cloudy 60 15.6 53 11.7 78 78 WSW 14 22 30.09 1019 10 16 N/A
1:53 pm 13:53 Cloudy 59 15 52 11.1 78 78 WSW 9 15 30.08 1019 10 16 N/A
2:53 pm 14:53 Cloudy 60 15.6 52 11.1 75 75 SW 7 11 30.06 1018 10 16 N/A
3:53 pm 15:53 Cloudy 59 15 52 11.1 78 78 SSW 8 13 30.05 1018 10 16 N/A
4:53 pm 16:53 Cloudy 60 15.6 52 11.1 75 75 SSW 5 7 30.04 1017 10 16 N/A
5:18 pm 17:18 Cloudy 60 15.6 52 11.1 75 75 S 7 11 30.04 1017 10 16 N/A
5:53 pm 17:53 Cloudy 61 16.1 52 11.1 72 72 N N/A 30.02 1017 10 16 N/A
6:53 pm 18:53 Cloudy 60 15.6 52 11.1 75 75 SSE 3 6 30.01 1016 10 16 N/A
7:53 pm 19:53 Cloudy 59 15 51 10.6 75 75 N N/A 30.02 1017 10 16 N/A
8:53 pm 20:53 Cloudy with Light Rain 57 13.9 53 11.7 87 87 N N/A 30.03 1017 8 13 0.02 0.51
9:53 pm 21:53 Cloudy 55 12.8 54 12.2 96 96 N N/A 30.02 1017 8 13 N/A
10:53 pm 22:53 Cloudy with Mist and Fog 54 12.2 53 11.7 97 97 N N/A 29.99 1016 6 10 N/A
11:53 pm 23:53 Cloudy with Light Rain 58 14.4 51 10.6 78 78 S 10 17 29.97 1015 10 16 N/A

Powered by AerisWeather